FW1659 Weather Reports


Display with metric or nautical units.
time (UTC)temp
F
wind
direction
speed
MPH
gust
MPH
rain 1hr
in
rain 24hr
in
rain mn
in
humidity
%
barometer
mb
20260510141538 79 131 6.0 9.0 0.00 0.00 0.00 90 1013.5
20260510140032 79 164 5.0 9.0 0.00 0.00 0.00 91 1013.3
20260510134534 79 161 6.0 9.0 0.00 0.00 0.00 91 1013.1
20260510133033 78 134 5.0 9.0 0.00 0.00 0.00 92 1013.0
20260510131529 78 142 4.0 8.0 0.00 0.00 0.00 92 1012.9
20260510130028 78 149 5.0 9.0 0.00 0.00 0.00 92 1012.6
20260510124526 78 153 8.0 10.0 0.00 0.00 0.00 92 1012.4
20260510123029 78 165 6.0 10.0 0.00 0.00 0.00 92 1012.2
20260510121524 78 155 8.0 10.0 0.00 0.00 0.00 92 1012.1
20260510120024 78 125 5.0 8.0 0.00 0.00 0.00 92 1011.9
20260510114524 78 150 5.0 8.0 0.00 0.08 0.00 92 1011.9
20260510113023 78 171 5.0 9.0 0.00 0.08 0.00 91 1011.9
20260510111522 78 157 7.0 9.0 0.00 0.08 0.00 92 1011.9
20260510110032 78 135 4.0 8.0 0.00 0.08 0.00 91 1012.0
20260510104523 78 140 6.0 10.0 0.00 0.15 0.00 92 1012.1
20260510103023 78 147 5.0 9.0 0.00 0.15 0.00 91 1012.0
20260510101519 78 140 6.0 9.0 0.00 0.15 0.00 91 1011.9
20260510100018 78 148 6.0 9.0 0.00 0.15 0.00 91 1011.9
20260510094518 78 117 3.0 5.0 0.00 0.16 0.00 91 1011.9
20260510093018 78 119 4.0 8.0 0.00 0.16 0.00 90 1011.9
20260510091515 78 138 7.0 11.0 0.00 0.16 0.00 90 1011.9
20260510090015 78 139 5.0 8.0 0.00 0.16 0.00 90 1011.8
20260510084514 78 166 6.0 9.0 0.00 0.16 0.00 89 1011.7
20260510083017 78 151 5.0 9.0 0.00 0.16 0.00 89 1011.9
20260510081513 78 150 6.0 10.0 0.00 0.16 0.00 88 1011.9
20260510080014 78 163 8.0 11.0 0.00 0.16 0.00 88 1011.8
20260510074511 78 128 8.0 12.0 0.00 0.17 0.00 88 1011.9
20260510073009 78 140 8.0 11.0 0.00 0.17 0.00 88 1012.0
20260510071508 78 145 7.0 12.0 0.00 0.17 0.00 88 1012.0
20260510070012 78 167 9.0 15.0 0.00 0.17 0.00 88 1012.0
20260510064505 78 150 9.0 13.0 0.00 0.18 0.00 89 1012.1
20260510063004 78 132 8.0 11.0 0.00 0.18 0.00 89 1012.1
20260510061502 78 165 8.0 12.0 0.00 0.18 0.00 89 1012.0
20260510060004 79 154 9.0 14.0 0.00 0.18 0.00 88 1011.9
20260510054601 79 141 10.0 14.0 0.00 0.18 0.00 88 1012.3
20260510053059 79 138 10.0 14.0 0.00 0.18 0.00 87 1012.4
20260510051602 79 130 7.0 12.0 0.00 0.18 0.00 86 1012.3
20260510050053 79 134 9.0 12.0 0.00 0.18 0.00 86 1011.9
20260510044555 79 132 9.0 11.0 0.00 0.18 0.18 86 1011.8
20260510043100 79 165 6.0 11.0 0.00 0.18 0.18 85 1011.5
20260510041608 79 161 10.0 14.0 0.00 0.18 0.18 85 1011.2
20260510040051 79 150 11.0 16.0 0.00 0.18 0.18 84 1011.1
20260510034551 79 164 11.0 14.0 0.00 0.18 0.18 84 1011.0
20260510033050 79 162 13.0 18.0 0.00 0.18 0.18 83 1010.6
20260510031555 80 180 13.0 19.0 0.00 0.18 0.18 81 1010.7
20260510030051 80 142 12.0 16.0 0.00 0.18 0.18 80 1010.9
20260510024556 80 155 13.0 17.0 0.00 0.18 0.18 79 1010.7
20260510023048 80 128 12.0 17.0 0.00 0.18 0.18 77 1010.8
20260510021546 80 128 11.0 15.0 0.00 0.18 0.18 76 1010.6
20260510020051 81 135 9.0 13.0 0.00 0.18 0.18 76 1010.4
20260510014545 81 139 10.0 13.0 0.00 0.18 0.18 75 1010.3
20260510013053 81 139 10.0 14.0 0.00 0.18 0.18 75 1009.9
20260510011544 82 132 10.0 14.0 0.00 0.18 0.18 76 1009.7
20260510010059 82 142 9.0 16.0 0.00 0.18 0.18 76 1009.7
20260510004543 82 136 12.0 15.0 0.00 0.18 0.18 76 1009.7
20260510003043 83 135 11.0 14.0 0.00 0.18 0.18 77 1009.6
20260510001543 83 128 12.0 15.0 0.00 0.18 0.18 76 1009.6
20260510000043 83 134 11.0 15.0 0.00 0.18 0.18 76 1009.6
20260509234557 83 131 11.0 15.0 0.00 0.18 0.18 76 1009.6
20260509233039 83 153 12.0 16.0 0.00 0.18 0.18 76 1009.6
20260509231538 83 138 13.0 18.0 0.00 0.18 0.18 76 1009.7
20260509230038 84 153 13.0 18.0 0.00 0.18 0.18 76 1009.8
20260509224538 84 140 12.0 15.0 0.00 0.18 0.18 75 1009.6
20260509223037 84 128 11.0 15.0 0.00 0.18 0.18 76 1009.7
20260509221559 84 161 10.0 16.0 0.00 0.18 0.18 77 1009.5
20260509220035 85 138 16.0 19.0 0.00 0.18 0.18 76 1009.5
20260509214536 86 146 7.0 10.0 0.00 0.18 0.18 74 1009.6
20260509213033 86 132 8.0 10.0 0.00 0.18 0.18 73 1009.4
20260509211532 86 137 7.0 11.0 0.00 0.18 0.18 77 1009.4
20260509210030 86 132 6.0 9.0 0.00 0.18 0.18 76 1009.5
20260509204527 86 140 5.0 9.0 0.00 0.18 0.18 77 1009.7
20260509203028 85 142 5.0 9.0 0.00 0.18 0.18 79 1009.7
20260509201523 84 144 7.0 10.0 0.00 0.18 0.18 78 1010.0
20260509200023 85 134 6.0 9.0 0.00 0.18 0.18 77 1010.0
20260509194522 85 134 4.0 7.0 0.00 0.18 0.18 75 1010.1
20260509193020 84 121 3.0 9.0 0.00 0.18 0.18 79 1010.2
20260509191517 84 115 4.0 8.0 0.00 0.18 0.18 79 1010.4
20260509190025 83 87 5.0 9.0 0.00 0.18 0.18 79 1010.3
20260509184526 82 87 4.0 8.0 0.00 0.18 0.18 79 1010.5
20260509183017 82 81 6.0 9.0 0.00 0.18 0.18 79 1010.6
20260509181512 82 95 5.0 10.0 0.00 0.18 0.18 79 1010.9
20260509180011 81 109 6.0 8.0 0.00 0.18 0.18 78 1010.9
20260509174510 81 105 6.0 8.0 0.00 0.18 0.18 77 1011.0
20260509173012 81 124 3.0 4.0 0.00 0.18 0.18 78 1010.7
20260509171507 80 153 2.0 9.0 0.00 0.18 0.18 80 1010.8
20260509170012 82 136 5.0 9.0 0.00 0.18 0.18 79 1011.1
20260509164505 82 140 3.0 5.0 0.00 0.18 0.18 76 1011.0
20260509163002 82 341 1.0 6.0 0.00 0.18 0.18 77 1011.4
20260509161559 80 46 1.0 5.0 0.00 0.18 0.18 79 1011.7
20260509160056 79 318 2.0 12.0 0.00 0.18 0.18 80 1011.3
20260509154554 79 306 7.0 12.0 0.00 0.18 0.18 80 1011.3
20260509153054 78 323 3.0 8.0 0.00 0.18 0.18 82 1011.2
20260509151559 78 340 4.0 10.0 0.00 0.18 0.18 82 1010.9
20260509150052 78 344 5.0 11.0 0.00 0.18 0.18 82 1010.6
20260509144552 78 315 2.0 5.0 0.00 0.18 0.18 79 1010.5
20260509143051 77 146 0.0 6.0 0.00 0.18 0.18 80 1010.4